TimeCST,TemperatureF,Dew PointF,Humidity,Sea Level PressureIn,VisibilityMPH,Wind Direction,Wind SpeedMPH,Gust SpeedMPH,PrecipitationIn,Events,Conditions,WindDirDegrees,DateUTC
12:52 AM,-5.1,-13.0,69,30.63,10.0,North,13.8,-,N/A,,Clear,360,2013-01-24 06:52:00
1:52 AM,-5.1,-13.0,69,30.63,10.0,NNE,9.2,-,N/A,,Clear,20,2013-01-24 07:52:00
2:52 AM,-4.0,-13.0,65,30.67,10.0,North,9.2,-,N/A,,Clear,10,2013-01-24 08:52:00
3:52 AM,-2.9,-11.9,65,30.66,10.0,NNE,11.5,-,N/A,,Partly Cloudy,30,2013-01-24 09:52:00
4:52 AM,-2.9,-11.9,65,30.64,10.0,NE,9.2,-,N/A,,Clear,50,2013-01-24 10:52:00
5:52 AM,-2.0,-11.9,63,30.66,10.0,ENE,5.8,-,N/A,,Clear,70,2013-01-24 11:52:00
6:52 AM,-2.0,-11.0,66,30.68,10.0,East,4.6,-,N/A,,Clear,80,2013-01-24 12:52:00
7:52 AM,-0.9,-9.9,66,30.66,10.0,ENE,9.2,-,N/A,,Clear,70,2013-01-24 13:52:00
8:52 AM,-0.0,-9.9,63,30.64,10.0,ESE,10.4,-,N/A,,Clear,110,2013-01-24 14:52:00
9:52 AM,1.9,-9.0,60,30.61,10.0,SE,12.7,-,N/A,,Clear,130,2013-01-24 15:52:00
10:52 AM,3.9,-7.1,60,30.61,10.0,SSE,15.0,-,N/A,,Clear,150,2013-01-24 16:52:00
11:52 AM,6.1,-6.0,58,30.57,10.0,SSE,18.4,-,N/A,,Clear,150,2013-01-24 17:52:00
12:52 PM,8.1,-5.1,55,30.52,10.0,SSE,17.3,-,N/A,,Clear,150,2013-01-24 18:52:00
1:52 PM,10.9,-4.0,51,30.47,10.0,SSE,18.4,-,N/A,,Clear,160,2013-01-24 19:52:00
2:52 PM,12.0,-4.0,49,30.43,10.0,SE,19.6,24.2,N/A,,Clear,140,2013-01-24 20:52:00
3:52 PM,12.0,-4.0,49,30.37,10.0,SSE,20.7,-,N/A,,Clear,150,2013-01-24 21:52:00
4:52 PM,12.0,-4.0,49,30.35,10.0,SSE,19.6,-,N/A,,Clear,160,2013-01-24 22:52:00
5:52 PM,12.0,-2.0,53,30.31,10.0,SSE,17.3,-,N/A,,Overcast,150,2013-01-24 23:52:00
6:52 PM,12.9,-2.0,51,30.32,10.0,SSE,16.1,24.2,N/A,,Overcast,150,2013-01-25 00:52:00
7:52 PM,12.9,-2.0,51,30.27,10.0,SSE,20.7,-,N/A,,Overcast,160,2013-01-25 01:52:00
8:52 PM,12.9,-0.9,54,30.26,10.0,South,18.4,-,N/A,,Overcast,170,2013-01-25 02:52:00
9:52 PM,14.0,-0.0,54,30.25,10.0,South,17.3,24.2,N/A,,Overcast,180,2013-01-25 03:52:00
10:52 PM,14.0,1.9,59,30.25,10.0,South,13.8,-,N/A,,Overcast,190,2013-01-25 04:52:00
11:52 PM,15.1,3.0,59,30.19,10.0,South,13.8,-,N/A,,Overcast,190,2013-01-25 05:52:00